"Pseudo-MPEC" for C1G1VQ5

Created 2026 Sep 5 11:35:04 UT using Find_Orb

Click here for an explanation of pseudo-MPECs

 
 Astrometry: 
     C1G1VQ5*1C2026 09 05.34117022 50 53.455-09 30 05.87   ~958o 22.42GVNEOCPV00
     C1G1VQ5 1C2026 09 05.34677322 50 53.444-09 30 37.98   ~958o 21.93GVNEOCPV00
     C1G1VQ5 1C2026 09 05.35235822 50 53.394-09 31 09.77   ~958o 22.17GVNEOCPV00
     C1G1VQ5 1C2026 09 05.35793422 50 53.322-09 31 40.94   ~958o       VNEOCPV00
     C1G1VQ5 1C2026 09 05.39523822 50 53.142-09 35 12.55   ~959o 22.48GVNEOCPV00
     C1G1VQ5 1C2026 09 05.39603222 50 53.135-09 35 17.16   ~959o 22.34GVNEOCPV00
     C1G1VQ5 1C2026 09 05.39682722 50 53.117-09 35 21.30   ~959o 22.18GVNEOCPV00
     C1G1VQ5 1C2026 09 05.39762122 50 53.113-09 35 26.56   ~959o 22.47GVNEOCPV00

Station data:
(V00) Kitt Peak-Bok  (N31.963125 W111.600190)  US/Arizona. Measurers T.
   Beuden, V. F. Carvajal, D. Fay, J. B. Fazekas, D. C. Fuls, A. R. Gibbs, A.
   D. Grauer, H. Gröller, J. K. Hogan, R. A. Kowalski, S. M. Larson, G. J.
   Leonard, D. Rankin, R. L. Seaman, F. C. Shelly, K. W. Wierzchoś. 2.25-m
   reflector + 4x4K mosaic CCD.

Orbital elements:  C1G1VQ5
   Perihelion 2026 Jul 7.648513 +/- 62.8 TT = 15:33:51.5 (JD 2461229.148513)
Epoch 2026 Sep  5.0 TT = JDT 2461288.5   Earth MOID: 0.1115   Ma: 0.0318
M   5.241674740 +/- 33              (J2000 ecliptic)             AutoNEOCP
n   0.088315812 +/- 0.177           Peri.   94.521303 +/- 70
a   4.993944799 +/- 6.67            Node   161.209828 +/- 0.10
e   0.85654399 +/- 0.265            Incl.   26.060316 +/- 15
P  11.16004                H 24.77  G  0.15   U 11.6  SR
q 0.716411359 +/- 0.283    Q 9.271478239 +/- 8.14
From 8 observations 2026 Sept. 5 (81.3 min); mean residual 0".23
Residuals in arcseconds: 
260905 V00  .09-  .06+    260905 V00  .41-  .33+    260905 V00  .09-  .33+    
260905 V00  .31+  .16-    260905 V00  .15+  .10+    260905 V00  .09-  .44-    
260905 V00  .12+  .19-    260905 V00  .11+  .02-    

Ephemerides (geocentric):
Date (UTC) HH   RA             Dec           delta  r     elong  mag " sig PA
---- --------  ------------   ------------  ------ ------ -----  --- --------
2026 09 05 12  22 50 54.747   -09 44 41.25  .25612 1.2641 176.9 22.6 70.7 122
2026 09 05 13  22 50 54.969   -09 48 34.33  .25668 1.2646 176.8 22.6 81.3 117
2026 09 05 14  22 50 55.189   -09 52 26.38  .25724 1.2651 176.7 22.6 92.5 113
2026 09 05 15  22 50 55.409   -09 56 17.42  .25780 1.2656 176.6 22.6  104 110
2026 09 05 16  22 50 55.629   -10 00 07.45  .25836 1.2662 176.5 22.6  116 107
2026 09 05 17  22 50 55.847   -10 03 56.47  .25892 1.2667 176.4 22.6  128 105
2026 09 05 18  22 50 56.065   -10 07 44.49  .25949 1.2672 176.3 22.7  140 103
2026 09 05 19  22 50 56.283   -10 11 31.51  .26005 1.2678 176.2 22.7  152 102
2026 09 05 20  22 50 56.499   -10 15 17.54  .26061 1.2683 176.2 22.7  164 100
2026 09 05 21  22 50 56.715   -10 19 02.58  .26117 1.2688 176.1 22.7  176  99
2026 09 05 22  22 50 56.931   -10 22 46.65  .26174 1.2694 176.0 22.7  189  97
2026 09 05 23  22 50 57.146   -10 26 29.74  .26230 1.2699 175.9 22.7  201  96
2026 09 06 00  22 50 57.360   -10 30 11.85  .26287 1.2704 175.8 22.7  214  94
2026 09 06 01  22 50 57.573   -10 33 53.00  .26343 1.2710 175.7 22.7  227  92
2026 09 06 02  22 50 57.786   -10 37 33.20  .26400 1.2715 175.6 22.7  240  89
2026 09 06 03  22 50 57.999   -10 41 12.43  .26457 1.2720 175.6 22.7  253  85
2026 09 06 04  22 50 58.211   -10 44 50.72  .26513 1.2726 175.5 22.8  268  80
2026 09 06 05  22 50 58.422   -10 48 28.06  .26570 1.2731 175.4 22.8  283  73
2026 09 06 06  22 50 58.633   -10 52 04.46  .26627 1.2736 175.3 22.8  301  62
2026 09 06 07  22 50 58.843   -10 55 39.93  .26684 1.2742 175.2 22.8  322  50
2026 09 06 08  22 50 59.053   -10 59 14.47  .26740 1.2747 175.1 22.8  348  40
2026 09 06 09  22 50 59.262   -11 02 48.08  .26797 1.2752 175.1 22.8  376  33
2026 09 06 10  22 50 59.471   -11 06 20.77  .26854 1.2757 175.0 22.8  408  28
2026 09 06 11  22 50 59.680   -11 09 52.54  .26911 1.2763 174.9 22.8  441  25
2026 09 06 12  22 50 59.888   -11 13 23.40  .26968 1.2768 174.8 22.8  476  22
2026 09 06 13  22 51 00.095   -11 16 53.36  .27025 1.2773 174.7 22.8  513  21
2026 09 06 14  22 51 00.302   -11 20 22.42  .27083 1.2779 174.6 22.8  552  19
2026 09 06 15  22 51 00.509   -11 23 50.58  .27140 1.2784 174.6 22.9  593  18
2026 09 06 16  22 51 00.715   -11 27 17.84  .27197 1.2789 174.5 22.9  635  17
2026 09 06 17  22 51 00.921   -11 30 44.22  .27254 1.2795 174.4 22.9  680  17
2026 09 06 18  22 51 01.127   -11 34 09.72  .27312 1.2800 174.3 22.9  726  16
2026 09 06 19  22 51 01.332   -11 37 34.34  .27369 1.2805 174.2 22.9  774  16
2026 09 06 20  22 51 01.537   -11 40 58.08  .27427 1.2811 174.2 22.9  824  15
2026 09 06 21  22 51 01.741   -11 44 20.95  .27484 1.2816 174.1 22.9  875  15
2026 09 06 22  22 51 01.945   -11 47 42.96  .27542 1.2821 174.0 22.9  929  14
2026 09 06 23  22 51 02.149   -11 51 04.11  .27599 1.2827 173.9 22.9  985  14
2026 09 07 00  22 51 02.353   -11 54 24.41  .27657 1.2832 173.8 22.9 1043  14
2026 09 07 01  22 51 02.556   -11 57 43.85  .27714 1.2837 173.8 22.9 1103  14
2026 09 07 02  22 51 02.759   -12 01 02.45  .27772 1.2843 173.7 23.0 1165  13
2026 09 07 03  22 51 02.962   -12 04 20.20  .27830 1.2848 173.6 23.0 1230  13
2026 09 07 04  22 51 03.164   -12 07 37.11  .27888 1.2853 173.5 23.0 1296  13
2026 09 07 05  22 51 03.366   -12 10 53.19  .27946 1.2859 173.4 23.0 1365  13
2026 09 07 06  22 51 03.568   -12 14 08.44  .28003 1.2864 173.4 23.0 1437  13
2026 09 07 07  22 51 03.770   -12 17 22.87  .28061 1.2869 173.3 23.0 1511  13
2026 09 07 08  22 51 03.971   -12 20 36.47  .28119 1.2874 173.2 23.0 1588  12
2026 09 07 09  22 51 04.172   -12 23 49.26  .28177 1.2880 173.1 23.0 1667  12
2026 09 07 10  22 51 04.373   -12 27 01.23  .28235 1.2885 173.1 23.0 1750  12
2026 09 07 11  22 51 04.574   -12 30 12.39  .28294 1.2890 173.0 23.0 1835  12